Flag for New Zealand Weather past 2 weeks in Christchurch, New Zealand

Now
28 °F

Chilly.


Feels Like: 23 °F
Forecast: 39 / 59 °F
Wind: 5 mph from West

Location: Christchurch Airport

Current Time: May 31, 2015 at 4:36:47 AM

Latest Report: May 31, 2015 at 4:00 AM


Visibility: N/A

Pressure: 29.95 "Hg

Humidity: 100%

Dew point: 28 °F

Location of ChristchurchLocation

Historic Weather in Christchurch — Graph

°F

Christchurch temperature yesterday

Maximum temperature yesterday: 50 °F (at 4:00 PM)
Minimum temperature yesterday: 25 °F (at 2:30 AM)
Average temperature yesterday: 39 °F

Past Weeks' High & Low Weather Summary

 TemperatureHumidityPressure
High72 °F (May 21, 1:00 PM)100% (May 17, 1:30 AM)30.36 "Hg (May 17, 1:30 AM)
Low21 °F (May 29, 7:30 AM)31% (May 23, 2:00 PM)29.30 "Hg (May 24, 2:00 PM)
Average44 °F74%29.91 "Hg
* Reported May 16 3:00 AM — May 31 3:30 AM, Christchurch, Weather by CustomWeather, © 2015

Note: Actual official high and low records may vary slightly from our data, if they occured in-between our weather recording intervals... More about our weather records

Advertising

Christchurch weather history for previous 24 hours

 ConditionsComfort  
Time TempWeatherWind HumidityBarometerVisibility
3:30 AM
Sun, May 31
30 °FChilly.3 mph100%29.98 "HgN/A
3:00 AM32 °FChilly.3 mph100%29.98 "HgN/A
2:30 AM32 °FChilly.5 mph100%29.98 "HgN/A
2:00 AM32 °FChilly.3 mph100%29.95 "HgN/A
1:30 AM34 °FChilly.3 mph100%29.95 "HgN/A
1:00 AM32 °FChilly.3 mph93%29.95 "HgN/A
12:30 AM39 °FChilly.6 mph93%29.98 "HgN/A
12:00 AM36 °FChilly.6 mph100%29.98 "HgN/A
11:30 PM
Sat, May 30
37 °FChilly.2 mph93%29.98 "HgN/A
11:00 PM37 °FChilly.2 mph93%29.98 "HgN/A
10:30 PM37 °FChilly.2 mph93%29.98 "HgN/A
10:00 PM41 °FQuite cool.2 mph87%29.98 "HgN/A
9:30 PM43 °FQuite cool.8 mph87%29.98 "HgN/A
9:00 PM43 °FQuite cool.6 mph87%29.95 "HgN/A
8:30 PM43 °FPassing clouds.9 mph87%29.98 "HgN/A
8:00 PM41 °FPassing clouds.5 mph87%29.98 "HgN/A
7:30 PM43 °FPassing clouds.1 mph87%29.98 "HgN/A
7:00 PM45 °FPassing clouds.1 mph87%29.98 "HgN/A
6:30 PM46 °FPartly cloudy.2 mph82%29.98 "HgN/A
6:00 PM48 °FPartly cloudy.1 mph76%29.98 "HgN/A
5:30 PM46 °FPassing clouds.5 mph82%29.95 "HgN/A
5:00 PM48 °FPassing clouds.3 mph76%29.95 "HgN/A
4:30 PM50 °FPassing clouds.3 mph76%29.95 "HgN/A
4:00 PM50 °FCool.2 mph71%29.95 "HgN/A
3:30 PM48 °FScattered clouds.5 mph76%29.95 "HgN/A
3:00 PM46 °FPartly sunny.2 mph82%29.98 "HgN/A
2:30 PM45 °FQuite cool.2 mph87%29.98 "HgN/A
2:00 PM45 °FQuite cool.5 mph87%29.98 "HgN/A
1:30 PM45 °FSprinkles. Partly sunny.2 mph87%29.98 "HgN/A
1:00 PM46 °FSprinkles. Mostly cloudy.6 mph82%30.01 "HgN/A
12:30 PM46 °FLight rain. Partly sunny.3 mph82%30.01 "HgN/A
12:00 PM46 °FLight rain. More clouds than sun.3 mph82%30.01 "HgN/A
11:30 AM46 °FPartly sunny.5 mph76%30.01 "HgN/A
11:00 AM46 °FCool.3 mph76%30.01 "HgN/A
10:30 AM45 °FQuite cool.3 mph76%30.01 "HgN/A
10:00 AM43 °FQuite cool.3 mph81%30.01 "HgN/A
9:30 AM39 °FChilly.6 mph87%30.01 "HgN/A
8:30 AM34 °FChilly.5 mph93%30.01 "HgN/A
8:00 AM32 °FChilly.2 mph93%30.01 "HgN/A
7:30 AM32 °FChilly.2 mph93%30.01 "HgN/A
7:00 AM30 °FChilly.2 mph100%30.04 "HgN/A
6:30 AM30 °FChilly.3 mph100%30.04 "HgN/A
6:00 AM34 °FChilly.2 mph93%30.04 "HgN/A
5:30 AM34 °FChilly.3 mph93%30.04 "HgN/A
5:00 AM34 °FLight fog.3 mph93%30.04 "Hg2 mi
4:30 AM32 °FLight fog.3 mph100%30.04 "Hg1 mi
4:00 AM32 °FLight fog.2 mph100%30.07 "Hg1 mi
Weather by CustomWeather, © 2015

See weather overviewHow to use our weather pages